,,,PA_Meas_PMT16A,,PR_Meas_QMR101_102,,RH_Meas_QMH101,,SR_Meas_QMS101,,TA_Meas_QMH101,,GenWind,,GenWind,
date,time,status,PA,status,PR,status,RH,status,SR,status,TA,status,DirAvg,status,SpdAvg,
2012-06-06, 00:00:04,VALID,1007.82,VALID,0,VALID,100.302,VALID,0,VALID,24.8244,VALID,131,VALID,0.928906,
2012-06-06, 00:01:04,VALID,1007.79,VALID,0,VALID,100.385,VALID,0,VALID,24.8244,VALID,116,VALID,0.859766,
2012-06-06, 00:02:04,VALID,1007.8,VALID,0,VALID,100.317,VALID,0,VALID,24.8244,VALID,116,VALID,0.670313,
2012-06-06, 00:03:04,VALID,1007.8,VALID,0,VALID,100.332,VALID,0,VALID,24.803,VALID,116,VALID,0.883203,
2012-06-06, 00:04:04,VALID,1007.75,VALID,0,VALID,100.378,VALID,0,VALID,24.8049,VALID,120,VALID,0.723828,
2012-06-06, 00:05:04,VALID,1007.76,VALID,0,VALID,100.416,VALID,0,VALID,24.803,VALID,113,VALID,0.932031,
2012-06-06, 00:06:04,VALID,1007.74,VALID,0,VALID,100.553,VALID,0,VALID,24.7835,VALID,110,VALID,0.491406,
2012-06-06, 00:07:04,VALID,1007.73,VALID,0,VALID,100.652,VALID,0,VALID,24.7854,VALID,109,VALID,1.32109,
2012-06-06, 00:08:04,VALID,1007.75,VALID,0,VALID,100.553,VALID,0,VALID,24.7854,VALID,109,VALID,0.770312,
2012-06-06, 00:09:04,VALID,1007.71,VALID,0,VALID,100.538,VALID,0,VALID,24.764,VALID,111,VALID,0.694922,
2012-06-06, 00:10:04,VALID,1007.69,VALID,0,VALID,100.622,VALID,0,VALID,24.7854,VALID,167,VALID,0.9,
2012-06-06, 00:11:04,VALID,1007.71,VALID,0,VALID,100.576,VALID,0,VALID,24.7659,VALID,160,VALID,0.567187,
2012-06-06, 00:12:04,VALID,1007.71,VALID,0,VALID,100.645,VALID,0,VALID,24.7445,VALID,160,VALID,0.382031,
2012-06-06, 00:13:04,VALID,1007.72,VALID,0,VALID,100.729,VALID,0,VALID,24.7659,VALID,160,VALID,0.424219,
2012-06-06, 00:14:04,VALID,1007.72,VALID,0,VALID,100.812,VALID,0,VALID,24.7464,VALID,159,VALID,0.326953,
2012-06-06, 00:15:04,VALID,1007.69,VALID,0,VALID,100.858,VALID,0,VALID,24.7464,VALID,119,VALID,0.711328,
2012-06-06, 00:16:04,VALID,1007.69,VALID,0,VALID,100.957,VALID,0,VALID,24.7269,VALID,119,VALID,0.514063,
2012-06-06, 00:17:04,VALID,1007.64,VALID,0,VALID,100.904,VALID,0,VALID,24.7483,VALID,119,VALID,0.594531,
2012-06-06, 00:18:04,VALID,1007.59,VALID,0,VALID,100.934,VALID,0,VALID,24.725,VALID,119,VALID,0.494141,
2012-06-06, 00:19:04,VALID,1007.56,VALID,0,VALID,101.072,VALID,0,VALID,24.7269,VALID,119,VALID,0.437891,
2012-06-06, 00:20:04,VALID,1007.62,VALID,0,VALID,101.095,VALID,0,VALID,24.7269,VALID,119,VALID,0.422266,
2012-06-06, 00:21:04,VALID,1007.6,VALID,0,VALID,101.133,VALID,0,VALID,24.7269,VALID,119,VALID,0.469922,
2012-06-06, 00:22:04,VALID,1007.61,VALID,0,VALID,100.942,VALID,0,VALID,24.725,VALID,119,VALID,0.74375,
2012-06-06, 00:23:04,VALID,1007.61,VALID,0,VALID,100.904,VALID,0,VALID,24.7464,VALID,100,VALID,0.617969,
2012-06-06, 00:24:04,VALID,1007.57,VALID,0,VALID,100.767,VALID,0.112112,VALID,24.7464,VALID,176,VALID,0.493359,
2012-06-06, 00:25:04,VALID,1007.54,VALID,0,VALID,100.774,VALID,0,VALID,24.7464,VALID,136,VALID,0.634375,
2012-06-06, 00:26:04,VALID,1007.54,VALID,0,VALID,100.652,VALID,0,VALID,24.725,VALID,126,VALID,0.85,
2012-06-06, 00:27:04,VALID,1007.54,VALID,0,VALID,100.729,VALID,0,VALID,24.7445,VALID,126,VALID,0.467578,
2012-06-06, 00:28:04,VALID,1007.51,VALID,0,VALID,100.858,VALID,0,VALID,24.7464,VALID,126,VALID,0.385156,
2012-06-06, 00:29:04,VALID,1007.52,VALID,0,VALID,100.934,VALID,0,VALID,24.7269,VALID,126,VALID,0.673047,
2012-06-06, 00:30:04,VALID,1007.54,VALID,0,VALID,100.912,VALID,0,VALID,24.7055,VALID,126,VALID,0.503125,
2012-06-06, 00:31:04,VALID,1007.53,VALID,0,VALID,100.965,VALID,0,VALID,24.7074,VALID,126,VALID,0.452734,
2012-06-06, 00:32:04,VALID,1007.5,VALID,0,VALID,101.018,VALID,0,VALID,24.6666,VALID,126,VALID,0.665625,
2012-06-06, 00:33:04,VALID,1007.51,VALID,0,VALID,100.965,VALID,0,VALID,24.6879,VALID,137,VALID,0.516016,
2012-06-06, 00:34:04,VALID,1007.49,VALID,0,VALID,101.041,VALID,0,VALID,24.6471,VALID,137,VALID,0.435937,
2012-06-06, 00:35:04,VALID,1007.44,VALID,0,VALID,101.278,VALID,0,VALID,24.6684,VALID,137,VALID,0.440234,
2012-06-06, 00:36:04,VALID,1007.4,VALID,0,VALID,101.392,VALID,0,VALID,24.6489,VALID,137,VALID,0.469922,
2012-06-06, 00:37:04,VALID,1007.37,VALID,0,VALID,101.529,VALID,0,VALID,24.6294,VALID,137,VALID,0.354297,
2012-06-06, 00:38:04,VALID,1007.34,VALID,0,VALID,101.636,VALID,0,VALID,24.6099,VALID,137,VALID,0.536328,
2012-06-06, 00:39:04,VALID,1007.4,VALID,0,VALID,101.644,VALID,0,VALID,24.6099,VALID,137,VALID,0.376953,
2012-06-06, 00:40:04,VALID,1007.37,VALID,0,VALID,101.689,VALID,0,VALID,24.5905,VALID,137,VALID,0.445313,
2012-06-06, 00:41:04,VALID,1007.38,VALID,0,VALID,101.728,VALID,0,VALID,24.5905,VALID,137,VALID,0.509766,
2012-06-06, 00:42:04,VALID,1007.38,VALID,0,VALID,101.728,VALID,0,VALID,24.6099,VALID,137,VALID,0.404687,
2012-06-06, 00:43:04,VALID,1007.39,VALID,0,VALID,101.712,VALID,0,VALID,24.6294,VALID,138,VALID,0.214844,
2012-06-06, 00:44:04,VALID,1007.39,VALID,0,VALID,101.689,VALID,0,VALID,24.6099,VALID,138,VALID,0.00351562,
2012-06-06, 00:45:04,VALID,1007.38,VALID,0,VALID,101.682,VALID,0,VALID,24.6099,VALID,138,VALID,0.342578,
2012-06-06, 00:46:04,VALID,1007.34,VALID,0,VALID,101.766,VALID,0,VALID,24.5886,VALID,138,VALID,0.187891,
2012-06-06, 00:47:04,VALID,1007.33,VALID,0,VALID,101.758,VALID,0,VALID,24.6099,VALID,138,VALID,0.369531,
2012-06-06, 00:48:04,VALID,1007.33,VALID,0,VALID,101.644,VALID,0,VALID,24.6099,VALID,100,VALID,0.701953,
2012-06-06, 00:49:04,VALID,1007.38,VALID,0,VALID,101.552,VALID,0,VALID,24.6099,VALID,100,VALID,0.311719,
2012-06-06, 00:50:04,VALID,1007.37,VALID,0,VALID,101.499,VALID,0,VALID,24.6294,VALID,100,VALID,0.508203,
2012-06-06, 00:51:04,VALID,1007.35,VALID,0,VALID,101.628,VALID,0,VALID,24.6294,VALID,100,VALID,0.256641,
2012-06-06, 00:52:04,VALID,1007.33,VALID,0,VALID,101.811,VALID,0,VALID,24.5886,VALID,100,VALID,0.390234,
2012-06-06, 00:53:04,VALID,1007.33,VALID,0,VALID,101.926,VALID,0,VALID,24.571,VALID,100,VALID,0.295312,
2012-06-06, 00:54:04,VALID,1007.33,VALID,0,VALID,102.025,VALID,0,VALID,24.532,VALID,100,VALID,0.154297,
2012-06-06, 00:55:04,VALID,1007.33,VALID,0,VALID,102.139,VALID,0,VALID,24.5125,VALID,100,VALID,0,
2012-06-06, 00:56:04,VALID,1007.29,VALID,0,VALID,102.246,VALID,0,VALID,24.4717,VALID,100,VALID,0.170312,
2012-06-06, 00:57:04,VALID,1007.3,VALID,0,VALID,102.376,VALID,0,VALID,24.4735,VALID,100,VALID,0,
2012-06-06, 00:58:04,VALID,1007.28,VALID,0,VALID,102.46,VALID,0,VALID,24.415,VALID,100,VALID,0,
2012-06-06, 00:59:04,VALID,1007.24,VALID,0,VALID,102.589,VALID,0,VALID,24.415,VALID,100,VALID,0.0683594,
2012-06-06, 01:00:04,VALID,1007.25,VALID,0,VALID,102.765,VALID,0,VALID,24.3761,VALID,100,VALID,0,
2012-06-06, 01:01:04,VALID,1007.26,VALID,0,VALID,102.955,VALID,0,VALID,24.3371,VALID,100,VALID,0,
2012-06-06, 01:02:04,VALID,1007.3,VALID,0,VALID,103.169,VALID,0,VALID,24.2981,VALID,100,VALID,0.00273437,
2012-06-06, 01:03:04,VALID,1007.3,VALID,0,VALID,103.215,VALID,0,VALID,24.2981,VALID,97,VALID,1.03398,
2012-06-06, 01:04:04,VALID,1007.32,VALID,0,VALID,103.146,VALID,0,VALID,24.3566,VALID,97,VALID,0.456641,
2012-06-06, 01:05:04,VALID,1007.3,VALID,0,VALID,103.032,VALID,0,VALID,24.3761,VALID,97,VALID,0.454688,
2012-06-06, 01:06:04,VALID,1007.28,VALID,0,VALID,102.986,VALID,0,VALID,24.3956,VALID,97,VALID,0.578906,
2012-06-06, 01:07:04,VALID,1007.28,VALID,0,VALID,102.971,VALID,0,VALID,24.3956,VALID,85,VALID,0.501953,
2012-06-06, 01:08:04,VALID,1007.26,VALID,0,VALID,102.925,VALID,0,VALID,24.3761,VALID,68,VALID,0.651953,
2012-06-06, 01:09:04,VALID,1007.26,VALID,0,VALID,102.94,VALID,0,VALID,24.3761,VALID,68,VALID,0.251563,
2012-06-06, 01:10:04,VALID,1007.26,VALID,0,VALID,102.963,VALID,0,VALID,24.3566,VALID,68,VALID,0.517187,
2012-06-06, 01:11:04,VALID,1007.3,VALID,0,VALID,103.024,VALID,0,VALID,24.3371,VALID,68,VALID,0.208203,
2012-06-06, 01:12:04,VALID,1007.28,VALID,0,VALID,103.077,VALID,0,VALID,24.3176,VALID,67,VALID,0.585156,
2012-06-06, 01:13:04,VALID,1007.32,VALID,0,VALID,103.199,VALID,0,VALID,24.2981,VALID,49,VALID,0.617578,
2012-06-06, 01:14:04,VALID,1007.29,VALID,0,VALID,103.314,VALID,0,VALID,24.2378,VALID,49,VALID,0.520312,
2012-06-06, 01:15:04,VALID,1007.3,VALID,0,VALID,103.443,VALID,0,VALID,24.2396,VALID,49,VALID,0.30625,
2012-06-06, 01:16:04,VALID,1007.26,VALID,0,VALID,103.581,VALID,0,VALID,24.2007,VALID,49,VALID,0.326562,
2012-06-06, 01:17:04,VALID,1007.24,VALID,0,VALID,103.733,VALID,0,VALID,24.1812,VALID,49,VALID,0.333594,
2012-06-06, 01:18:04,VALID,1007.22,VALID,0,VALID,103.886,VALID,0,VALID,24.1422,VALID,49,VALID,0,
2012-06-06, 01:19:04,VALID,1007.21,VALID,0,VALID,104,VALID,0,VALID,24.0819,VALID,49,VALID,0.421094,
2012-06-06, 01:20:04,VALID,1007.19,VALID,0,VALID,104,VALID,0,VALID,24.0837,VALID,49,VALID,0.155859,
2012-06-06, 01:21:04,VALID,1007.21,VALID,0,VALID,104,VALID,0,VALID,24.0643,VALID,49,VALID,0.416016,
2012-06-06, 01:22:04,VALID,1007.16,VALID,0,VALID,104,VALID,0,VALID,24.0448,VALID,49,VALID,0.362891,
2012-06-06, 01:23:04,VALID,1007.16,VALID,0,VALID,104,VALID,0,VALID,24.0448,VALID,49,VALID,0.009375,
2012-06-06, 01:24:04,VALID,1007.15,VALID,0,VALID,104,VALID,0,VALID,24.0253,VALID,49,VALID,0.159766,
2012-06-06, 01:25:04,VALID,1007.16,VALID,0,VALID,104,VALID,0,VALID,24.0253,VALID,49,VALID,0.375,
2012-06-06, 01:26:04,VALID,1007.16,VALID,0,VALID,104,VALID,0,VALID,24.0466,VALID,49,VALID,0.285547,
2012-06-06, 01:27:04,VALID,1007.2,VALID,0,VALID,104,VALID,0,VALID,24.0253,VALID,49,VALID,0.389844,
2012-06-06, 01:28:04,VALID,1007.21,VALID,0,VALID,104,VALID,0,VALID,24.0253,VALID,49,VALID,0.29375,
2012-06-06, 01:29:04,VALID,1007.23,VALID,0,VALID,104,VALID,0.112112,VALID,23.9863,VALID,49,VALID,0.264453,
2012-06-06, 01:30:04,VALID,1007.27,VALID,0,VALID,104,VALID,0,VALID,23.9668,VALID,49,VALID,0.295703,
2012-06-06, 01:31:04,VALID,1007.25,VALID,0,VALID,104,VALID,0,VALID,23.9473,VALID,49,VALID,0.341016,
2012-06-06, 01:32:04,VALID,1007.23,VALID,0,VALID,104,VALID,0,VALID,23.9084,VALID,49,VALID,0.377344,
2012-06-06, 01:33:04,VALID,1007.26,VALID,0,VALID,104,VALID,0,VALID,23.9102,VALID,49,VALID,0.492969,
2012-06-06, 01:34:04,VALID,1007.27,VALID,0,VALID,104,VALID,0,VALID,23.8889,VALID,49,VALID,0.339453,
2012-06-06, 01:35:04,VALID,1007.28,VALID,0,VALID,104,VALID,0,VALID,23.8499,VALID,49,VALID,0.255078,
2012-06-06, 01:36:04,VALID,1007.22,VALID,0,VALID,104,VALID,0,VALID,23.8304,VALID,49,VALID,0.199219,
2012-06-06, 01:37:04,VALID,1007.21,VALID,0,VALID,104,VALID,0,VALID,23.8304,VALID,49,VALID,0,
2012-06-06, 01:38:04,VALID,1007.2,VALID,0,VALID,104,VALID,0,VALID,23.8109,VALID,49,VALID,0,
2012-06-06, 01:39:04,VALID,1007.18,VALID,0,VALID,104,VALID,0,VALID,23.7914,VALID,49,VALID,0,
2012-06-06, 01:40:04,VALID,1007.15,VALID,0,VALID,104,VALID,0,VALID,23.7914,VALID,49,VALID,0.578125,
2012-06-06, 01:41:04,VALID,1007.16,VALID,0,VALID,104,VALID,0,VALID,23.7896,VALID,49,VALID,0.387891,
2012-06-06, 01:42:04,VALID,1007.18,VALID,0,VALID,104,VALID,0,VALID,23.7914,VALID,49,VALID,0.21875,
2012-06-06, 01:43:04,VALID,1007.2,VALID,0,VALID,104,VALID,0,VALID,23.7507,VALID,49,VALID,0,
2012-06-06, 01:44:04,VALID,1007.22,VALID,0,VALID,104,VALID,0,VALID,23.7914,VALID,49,VALID,0.384375,
2012-06-06, 01:45:04,VALID,1007.23,VALID,0,VALID,104,VALID,0,VALID,23.7914,VALID,49,VALID,0.219141,
2012-06-06, 01:46:04,VALID,1007.24,VALID,0,VALID,104,VALID,0,VALID,23.772,VALID,49,VALID,0.314844,
2012-06-06, 01:47:04,VALID,1007.25,VALID,0,VALID,104,VALID,0,VALID,23.7914,VALID,49,VALID,0.308594,
2012-06-06, 01:48:04,VALID,1007.27,VALID,0,VALID,104,VALID,0,VALID,23.772,VALID,49,VALID,0.430859,
2012-06-06, 01:49:04,VALID,1007.3,VALID,0,VALID,104,VALID,0,VALID,23.7914,VALID,49,VALID,0.342969,
2012-06-06, 01:50:04,VALID,1007.32,VALID,0,VALID,104,VALID,0,VALID,23.7701,VALID,49,VALID,0.102734,
2012-06-06, 01:51:04,VALID,1007.32,VALID,0,VALID,104,VALID,0,VALID,23.7914,VALID,49,VALID,0.0242187,
2012-06-06, 01:52:04,VALID,1007.3,VALID,0,VALID,104,VALID,0,VALID,23.8127,VALID,49,VALID,0,
2012-06-06, 01:53:04,VALID,1007.31,VALID,0,VALID,104,VALID,0,VALID,23.7914,VALID,49,VALID,0,
2012-06-06, 01:54:04,VALID,1007.33,VALID,0,VALID,104,VALID,0,VALID,23.7507,VALID,49,VALID,0,
2012-06-06, 01:55:04,VALID,1007.33,VALID,0,VALID,104,VALID,0,VALID,23.7914,VALID,49,VALID,0,
2012-06-06, 01:56:04,VALID,1007.32,VALID,0,VALID,104,VALID,0,VALID,23.7914,VALID,49,VALID,0,
2012-06-06, 01:57:04,VALID,1007.35,VALID,0,VALID,104,VALID,0,VALID,23.7914,VALID,49,VALID,0,
2012-06-06, 01:58:04,VALID,1007.34,VALID,0,VALID,104,VALID,0,VALID,23.8109,VALID,49,VALID,0,
2012-06-06, 01:59:04,VALID,1007.33,VALID,0,VALID,104,VALID,0,VALID,23.7896,VALID,49,VALID,0,
2012-06-06, 02:00:04,VALID,1007.32,VALID,0,VALID,104,VALID,0,VALID,23.7914,VALID,49,VALID,0,
2012-06-06, 02:01:04,VALID,1007.33,VALID,0,VALID,104,VALID,0,VALID,23.7701,VALID,49,VALID,0,
2012-06-06, 02:02:04,VALID,1007.33,VALID,0,VALID,104,VALID,0,VALID,23.7914,VALID,49,VALID,0.337109,
2012-06-06, 02:03:04,VALID,1007.3,VALID,0,VALID,104,VALID,0,VALID,23.772,VALID,49,VALID,0.132031,
2012-06-06, 02:04:04,VALID,1007.28,VALID,0,VALID,104,VALID,0,VALID,23.7525,VALID,49,VALID,0.366797,
2012-06-06, 02:05:04,VALID,1007.24,VALID,0,VALID,104,VALID,0,VALID,23.733,VALID,49,VALID,0.21875,
2012-06-06, 02:06:04,VALID,1007.24,VALID,0,VALID,104,VALID,0,VALID,23.7135,VALID,49,VALID,0.462891,
2012-06-06, 02:07:04,VALID,1007.26,VALID,0,VALID,104,VALID,0,VALID,23.733,VALID,49,VALID,0.273047,
2012-06-06, 02:08:04,VALID,1007.29,VALID,0,VALID,104,VALID,0,VALID,23.7135,VALID,49,VALID,0.209766,
2012-06-06, 02:09:04,VALID,1007.29,VALID,0,VALID,104,VALID,0,VALID,23.694,VALID,49,VALID,0.414063,
2012-06-06, 02:10:04,VALID,1007.29,VALID,0,VALID,104,VALID,0,VALID,23.694,VALID,49,VALID,0.345703,
2012-06-06, 02:11:04,VALID,1007.25,VALID,0,VALID,104,VALID,0,VALID,23.6745,VALID,49,VALID,0.217969,
2012-06-06, 02:12:04,VALID,1007.22,VALID,0,VALID,104,VALID,0,VALID,23.655,VALID,49,VALID,0.505469,
2012-06-06, 02:13:04,VALID,1007.16,VALID,0,VALID,104,VALID,0,VALID,23.655,VALID,49,VALID,0.4875,
2012-06-06, 02:14:04,VALID,1007.16,VALID,0,VALID,104,VALID,0,VALID,23.655,VALID,49,VALID,0.191406,
2012-06-06, 02:15:04,VALID,1007.23,VALID,0,VALID,104,VALID,0,VALID,23.6356,VALID,49,VALID,0,
2012-06-06, 02:16:04,VALID,1007.22,VALID,0,VALID,104,VALID,0,VALID,23.6161,VALID,49,VALID,0.310547,
2012-06-06, 02:17:04,VALID,1007.22,VALID,0,VALID,104,VALID,0,VALID,23.6161,VALID,49,VALID,0.173828,
2012-06-06, 02:18:04,VALID,1007.2,VALID,0,VALID,104,VALID,0,VALID,23.6356,VALID,49,VALID,0.0308594,
2012-06-06, 02:19:04,VALID,1007.17,VALID,0,VALID,104,VALID,0,VALID,23.6161,VALID,49,VALID,0,
2012-06-06, 02:20:04,VALID,1007.15,VALID,0,VALID,104,VALID,0,VALID,23.5966,VALID,49,VALID,0.185937,
2012-06-06, 02:21:04,VALID,1007.12,VALID,0,VALID,104,VALID,0,VALID,23.6161,VALID,49,VALID,0.200781,
2012-06-06, 02:22:04,VALID,1007.16,VALID,0,VALID,104,VALID,0,VALID,23.6161,VALID,49,VALID,0.303125,
2012-06-06, 02:23:04,VALID,1007.13,VALID,0,VALID,104,VALID,0,VALID,23.6356,VALID,49,VALID,0.397656,
2012-06-06, 02:24:04,VALID,1007.17,VALID,0,VALID,104,VALID,0,VALID,23.6356,VALID,49,VALID,0,
2012-06-06, 02:25:04,VALID,1007.15,VALID,0,VALID,104,VALID,0,VALID,23.6356,VALID,38,VALID,0.573438,
2012-06-06, 02:26:04,VALID,1007.17,VALID,0,VALID,104,VALID,0,VALID,23.6356,VALID,38,VALID,0.167187,
2012-06-06, 02:27:04,VALID,1007.19,VALID,0,VALID,104,VALID,0,VALID,23.6161,VALID,38,VALID,0.136328,
2012-06-06, 02:28:04,VALID,1007.17,VALID,0,VALID,104,VALID,0.112112,VALID,23.6161,VALID,38,VALID,0.175391,
2012-06-06, 02:29:04,VALID,1007.15,VALID,0,VALID,104,VALID,0,VALID,23.5966,VALID,38,VALID,0.0128906,
2012-06-06, 02:30:04,VALID,1007.15,VALID,0,VALID,104,VALID,0,VALID,23.5771,VALID,38,VALID,0.0539063,
2012-06-06, 02:31:04,VALID,1007.11,VALID,0,VALID,104,VALID,0,VALID,23.5576,VALID,38,VALID,0,
2012-06-06, 02:32:04,VALID,1007.09,VALID,0,VALID,104,VALID,0,VALID,23.5576,VALID,38,VALID,0,
2012-06-06, 02:33:04,VALID,1007.11,VALID,0,VALID,104,VALID,0,VALID,23.5381,VALID,38,VALID,0,
2012-06-06, 02:34:04,VALID,1007.09,VALID,0,VALID,104,VALID,0,VALID,23.4974,VALID,38,VALID,0,
2012-06-06, 02:35:04,VALID,1007.07,VALID,0,VALID,104,VALID,0,VALID,23.5186,VALID,38,VALID,0,
2012-06-06, 02:36:04,VALID,1007.04,VALID,0,VALID,104,VALID,0,VALID,23.5186,VALID,38,VALID,0,
2012-06-06, 02:37:04,VALID,1007.06,VALID,0,VALID,104,VALID,0,VALID,23.4992,VALID,38,VALID,0.046875,
2012-06-06, 02:38:04,VALID,1007.06,VALID,0,VALID,104,VALID,0,VALID,23.5186,VALID,38,VALID,0.0175781,
2012-06-06, 02:39:04,VALID,1007.07,VALID,0,VALID,104,VALID,0,VALID,23.4992,VALID,38,VALID,0,
2012-06-06, 02:40:04,VALID,1007.07,VALID,0,VALID,104,VALID,0,VALID,23.4584,VALID,38,VALID,0.348437,
2012-06-06, 02:41:04,VALID,1007.02,VALID,0,VALID,104,VALID,0.112112,VALID,23.4584,VALID,38,VALID,0.114453,
2012-06-06, 02:42:04,VALID,1007,VALID,0,VALID,104,VALID,0,VALID,23.4602,VALID,38,VALID,0,
2012-06-06, 02:43:04,VALID,1006.98,VALID,0,VALID,104,VALID,0,VALID,23.4407,VALID,38,VALID,0,
2012-06-06, 02:44:04,VALID,1006.97,VALID,0,VALID,104,VALID,0,VALID,23.4407,VALID,38,VALID,0,
2012-06-06, 02:45:04,VALID,1006.96,VALID,0,VALID,104,VALID,0.112112,VALID,23.4407,VALID,38,VALID,0,
2012-06-06, 02:46:04,VALID,1006.98,VALID,0,VALID,104,VALID,0,VALID,23.4212,VALID,38,VALID,0.078125,
2012-06-06, 02:47:04,VALID,1006.97,VALID,0,VALID,104,VALID,0,VALID,23.4017,VALID,38,VALID,0,
2012-06-06, 02:48:04,VALID,1006.99,VALID,0,VALID,104,VALID,0.112112,VALID,23.4017,VALID,38,VALID,0,
2012-06-06, 02:49:04,VALID,1006.99,VALID,0,VALID,104,VALID,0,VALID,23.4017,VALID,38,VALID,0,
2012-06-06, 02:50:04,VALID,1006.98,VALID,0,VALID,104,VALID,0,VALID,23.4017,VALID,38,VALID,0,
2012-06-06, 02:51:04,VALID,1006.98,VALID,0,VALID,104,VALID,0,VALID,23.3823,VALID,38,VALID,0.258203,
2012-06-06, 02:52:04,VALID,1006.98,VALID,0,VALID,104,VALID,0,VALID,23.3628,VALID,38,VALID,0.198047,
2012-06-06, 02:53:04,VALID,1006.99,VALID,0,VALID,104,VALID,0,VALID,23.3628,VALID,38,VALID,0.302344,
2012-06-06, 02:54:04,VALID,1006.99,VALID,0,VALID,104,VALID,0,VALID,23.3433,VALID,38,VALID,0.151172,
2012-06-06, 02:55:04,VALID,1006.99,VALID,0,VALID,104,VALID,0.112112,VALID,23.3433,VALID,38,VALID,0,
2012-06-06, 02:56:04,VALID,1006.98,VALID,0,VALID,104,VALID,0,VALID,23.3433,VALID,38,VALID,0.192578,
2012-06-06, 02:57:04,VALID,1006.94,VALID,0,VALID,104,VALID,0,VALID,23.3628,VALID,38,VALID,0,
2012-06-06, 02:58:04,VALID,1006.94,VALID,0,VALID,104,VALID,0,VALID,23.384,VALID,38,VALID,0,
2012-06-06, 02:59:04,VALID,1006.94,VALID,0,VALID,104,VALID,0,VALID,23.3628,VALID,38,VALID,0.0996094,
2012-06-06, 03:00:04,VALID,1006.91,VALID,0,VALID,104,VALID,0,VALID,23.3628,VALID,38,VALID,0.0527344,
2012-06-06, 03:01:04,VALID,1006.9,VALID,0,VALID,104,VALID,0,VALID,23.3628,VALID,38,VALID,0.0375,
2012-06-06, 03:02:04,VALID,1006.85,VALID,0,VALID,104,VALID,0,VALID,23.3628,VALID,38,VALID,0,
2012-06-06, 03:03:04,VALID,1006.86,VALID,0,VALID,104,VALID,0,VALID,23.3433,VALID,38,VALID,0,
2012-06-06, 03:04:04,VALID,1006.85,VALID,0,VALID,104,VALID,0,VALID,23.3433,VALID,38,VALID,0.360938,
2012-06-06, 03:05:04,VALID,1006.84,VALID,0,VALID,104,VALID,0,VALID,23.3628,VALID,38,VALID,0.075,
2012-06-06, 03:06:04,VALID,1006.81,VALID,0,VALID,104,VALID,0,VALID,23.3433,VALID,38,VALID,0,
2012-06-06, 03:07:04,VALID,1006.78,VALID,0,VALID,104,VALID,0,VALID,23.3238,VALID,38,VALID,0,
2012-06-06, 03:08:04,VALID,1006.77,VALID,0,VALID,104,VALID,0,VALID,23.3238,VALID,38,VALID,0,
2012-06-06, 03:09:04,VALID,1006.78,VALID,0,VALID,104,VALID,0,VALID,23.2848,VALID,38,VALID,0.121094,
2012-06-06, 03:10:04,VALID,1006.79,VALID,0,VALID,104,VALID,0,VALID,23.3043,VALID,38,VALID,0.233984,
2012-06-06, 03:11:04,VALID,1006.82,VALID,0,VALID,104,VALID,0,VALID,23.3043,VALID,38,VALID,0.00078125,
2012-06-06, 03:12:04,VALID,1006.82,VALID,0,VALID,104,VALID,0,VALID,23.3043,VALID,38,VALID,0,
2012-06-06, 03:13:04,VALID,1006.82,VALID,0,VALID,104,VALID,0,VALID,23.2848,VALID,38,VALID,0.488281,
2012-06-06, 03:14:04,VALID,1006.83,VALID,0,VALID,104,VALID,0,VALID,23.3451,VALID,38,VALID,0.455469,
2012-06-06, 03:15:04,VALID,1006.83,VALID,0,VALID,104,VALID,0,VALID,23.3238,VALID,38,VALID,0.267969,
2012-06-06, 03:16:04,VALID,1006.83,VALID,0,VALID,104,VALID,0,VALID,23.3238,VALID,38,VALID,0.278516,
2012-06-06, 03:17:04,VALID,1006.83,VALID,0,VALID,104,VALID,0,VALID,23.3043,VALID,38,VALID,0.365625,
2012-06-06, 03:18:04,VALID,1006.79,VALID,0,VALID,104,VALID,0,VALID,23.3238,VALID,38,VALID,0.228125,
2012-06-06, 03:19:04,VALID,1006.78,VALID,0,VALID,104,VALID,0,VALID,23.3043,VALID,38,VALID,0.223438,
2012-06-06, 03:20:04,VALID,1006.76,VALID,0,VALID,104,VALID,0,VALID,23.2848,VALID,38,VALID,0.328906,
2012-06-06, 03:21:04,VALID,1006.73,VALID,0,VALID,104,VALID,0,VALID,23.2848,VALID,38,VALID,0.388281,
2012-06-06, 03:22:04,VALID,1006.69,VALID,0,VALID,104,VALID,0,VALID,23.3043,VALID,38,VALID,0.568359,
2012-06-06, 03:23:04,VALID,1006.67,VALID,0,VALID,104,VALID,0,VALID,23.3256,VALID,38,VALID,0.09375,
2012-06-06, 03:24:04,VALID,1006.64,VALID,0,VALID,104,VALID,0,VALID,23.3043,VALID,38,VALID,0.213281,
2012-06-06, 03:25:04,VALID,1006.63,VALID,0,VALID,104,VALID,0,VALID,23.3043,VALID,38,VALID,0.165234,
2012-06-06, 03:26:04,VALID,1006.62,VALID,0,VALID,104,VALID,0.112112,VALID,23.3238,VALID,38,VALID,0.377344,
2012-06-06, 03:27:04,VALID,1006.6,VALID,0,VALID,104,VALID,0,VALID,23.3433,VALID,38,VALID,0.488672,
2012-06-06, 03:28:04,VALID,1006.61,VALID,0,VALID,104,VALID,0,VALID,23.3433,VALID,38,VALID,0.593359,
2012-06-06, 03:29:04,VALID,1006.63,VALID,0,VALID,104,VALID,0,VALID,23.4017,VALID,38,VALID,0.603906,
2012-06-06, 03:30:04,VALID,1006.63,VALID,0,VALID,104,VALID,0,VALID,23.4017,VALID,38,VALID,0.303125,
2012-06-06, 03:31:04,VALID,1006.59,VALID,0,VALID,104,VALID,0,VALID,23.4212,VALID,38,VALID,0.0195313,
2012-06-06, 03:32:04,VALID,1006.59,VALID,0,VALID,104,VALID,0,VALID,23.4017,VALID,38,VALID,0,
2012-06-06, 03:33:04,VALID,1006.58,VALID,0,VALID,104,VALID,0,VALID,23.4017,VALID,38,VALID,0.0703125,
2012-06-06, 03:34:04,VALID,1006.53,VALID,0,VALID,104,VALID,0,VALID,23.423,VALID,38,VALID,0.504687,
2012-06-06, 03:35:04,VALID,1006.54,VALID,0,VALID,104,VALID,0,VALID,23.4017,VALID,38,VALID,0.385938,
2012-06-06, 03:36:04,VALID,1006.53,VALID,0,VALID,104,VALID,0,VALID,23.4017,VALID,38,VALID,0.455859,
2012-06-06, 03:37:04,VALID,1006.55,VALID,0,VALID,104,VALID,0,VALID,23.4017,VALID,39,VALID,0.414453,
2012-06-06, 03:38:04,VALID,1006.52,VALID,0,VALID,104,VALID,0,VALID,23.4017,VALID,39,VALID,0.264844,
2012-06-06, 03:39:04,VALID,1006.5,VALID,0,VALID,104,VALID,0,VALID,23.4212,VALID,39,VALID,0.278906,
2012-06-06, 03:40:04,VALID,1006.52,VALID,0,VALID,104,VALID,0,VALID,23.4407,VALID,39,VALID,0.269922,
2012-06-06, 03:41:04,VALID,1006.51,VALID,0,VALID,104,VALID,0,VALID,23.4602,VALID,40,VALID,0.455469,
2012-06-06, 03:42:04,VALID,1006.51,VALID,0,VALID,104,VALID,0,VALID,23.4602,VALID,41,VALID,0.587891,
2012-06-06, 03:43:04,VALID,1006.49,VALID,0,VALID,104,VALID,0,VALID,23.5186,VALID,57,VALID,0.604297,
2012-06-06, 03:44:04,VALID,1006.49,VALID,0,VALID,104,VALID,0,VALID,23.5186,VALID,58,VALID,0.548828,
2012-06-06, 03:45:04,VALID,1006.48,VALID,0,VALID,104,VALID,0,VALID,23.5186,VALID,66,VALID,0.855859,
2012-06-06, 03:46:04,VALID,1006.48,VALID,0,VALID,104,VALID,0,VALID,23.5594,VALID,63,VALID,0.876562,
2012-06-06, 03:47:04,VALID,1006.48,VALID,0,VALID,104,VALID,0,VALID,23.5381,VALID,58,VALID,0.515234,
2012-06-06, 03:48:04,VALID,1006.5,VALID,0,VALID,104,VALID,0,VALID,23.5186,VALID,58,VALID,0.518359,
2012-06-06, 03:49:04,VALID,1006.49,VALID,0,VALID,104,VALID,0,VALID,23.5381,VALID,80,VALID,0.526172,
2012-06-06, 03:50:04,VALID,1006.52,VALID,0,VALID,104,VALID,0.112112,VALID,23.5381,VALID,80,VALID,0.268359,
2012-06-06, 03:51:04,VALID,1006.55,VALID,0,VALID,104,VALID,0.112112,VALID,23.5186,VALID,80,VALID,0.220703,
2012-06-06, 03:52:04,VALID,1006.56,VALID,0,VALID,104,VALID,0,VALID,23.4797,VALID,73,VALID,0.159766,
2012-06-06, 03:53:04,VALID,1006.52,VALID,0,VALID,104,VALID,0,VALID,23.4992,VALID,49,VALID,0.196875,
2012-06-06, 03:54:04,VALID,1006.51,VALID,0,VALID,104,VALID,0.112112,VALID,23.4779,VALID,51,VALID,0.516797,